Date String (YYYY-MM-DD hh:mm:ss) UTC,Instrument flags,Ambient pressure (hPa),Sample flow (lpm),Bypass flow (lpm),Sample temperature (°C),Ambient temperature (°C),ASC tube jacket temperature (°C),LED temperature (°C),Box temperature (°C),Sample RH (%),Span deviation,Mass concentration (μg/m³),Mass concentration (μg/m³),Mass concentration (μg/m³)
DateTimeUTC,F1_M11,P_M11,Q1_M11,Q2_M11,T1_M11,T2_M11,T3_M11,T4_M11,T5_M11,U1_M11,ZSPAN_M11,X0_M11,X2_M11,X1_M11
2021-09-18 02:00:00,,0832.2,5.01,0.00,29.9,28.9,00.0,39.0,31.7,20.2,0002.6,0032.93,0012.04,0009.28
2021-09-18 02:01:00,,0832.3,4.99,0.00,29.9,28.9,00.0,39.0,31.7,20.1,0002.5,0033.41,0012.08,0009.35
2021-09-18 02:02:00,,0832.3,5.01,0.00,29.9,29.0,00.0,39.0,31.7,20.1,0002.6,0036.45,0012.19,0009.41
2021-09-18 02:03:00,,0832.3,4.99,0.00,29.9,29.0,00.0,39.0,31.7,20.1,0002.9,0038.91,0012.22,0009.47
2021-09-18 02:04:00,,0832.3,5.01,0.00,29.9,29.1,00.0,39.0,31.7,20.1,0003.0,0039.35,0012.37,0009.55
2021-09-18 02:05:00,,0832.3,5.00,0.00,30.0,29.1,00.0,39.0,31.8,20.1,0002.9,0037.70,0012.40,0009.60
2021-09-18 02:06:00,,0832.3,5.00,0.00,30.0,29.1,00.0,39.0,31.7,20.1,0002.7,0036.48,0012.33,0009.61
2021-09-18 02:07:00,,0832.3,5.00,0.00,30.0,29.2,00.0,39.0,31.7,20.1,0002.8,0035.70,0012.34,0009.60
2021-09-18 02:08:00,,0832.3,5.01,0.00,30.0,29.1,00.0,39.1,31.7,20.1,0002.6,0035.14,0012.30,0009.57
2021-09-18 02:09:00,,0832.3,5.00,0.00,29.9,27.5,00.0,39.0,31.3,20.2,0002.4,0034.72,0012.30,0009.55
2021-09-18 02:10:00,,0832.3,4.99,0.00,29.8,26.2,00.0,39.0,31.0,20.3,0002.3,0034.11,0012.27,0009.52
2021-09-18 02:11:00,,0832.3,5.00,0.00,29.7,26.3,00.0,38.9,31.0,20.5,0002.6,0034.55,0012.21,0009.50
2021-09-18 02:12:00,,0832.3,5.00,0.00,29.6,26.7,00.0,38.9,31.0,20.6,0002.3,0034.53,0012.21,0009.50
2021-09-18 02:13:00,,0832.4,5.00,0.00,29.6,27.1,00.0,38.9,31.1,20.5,0002.5,0032.95,0012.17,0009.50
2021-09-18 02:14:00,,0832.3,5.01,0.00,29.6,27.4,00.0,38.8,31.2,20.6,0002.4,0031.56,0012.14,0009.49
2021-09-18 02:15:00,,0832.3,5.00,0.00,29.6,27.7,00.0,38.8,31.3,20.5,0002.4,0031.46,0012.17,0009.50
2021-09-18 02:16:00,,0832.3,4.99,0.00,29.6,27.9,00.0,38.8,31.3,20.5,0002.6,0031.54,0012.22,0009.51
2021-09-18 02:17:00,,0832.3,5.00,0.00,29.6,28.1,00.0,38.8,31.3,20.5,0002.7,0031.40,0012.20,0009.51
2021-09-18 02:18:00,,0832.3,5.01,0.00,29.6,28.3,00.0,38.8,31.3,20.5,0002.6,0031.91,0012.09,0009.53
2021-09-18 02:19:00,,0832.3,4.99,0.00,29.6,28.4,00.0,38.8,31.3,20.5,0002.8,0031.55,0012.04,0009.55
2021-09-18 02:20:00,,0832.3,5.01,0.00,29.6,28.4,00.0,38.8,31.3,20.5,0003.0,0030.82,0011.97,0009.57
2021-09-18 02:21:00,,0832.3,5.00,0.00,29.6,28.5,00.0,38.8,31.3,20.5,0002.9,0031.56,0012.00,0009.62
2021-09-18 02:22:00,,0832.3,4.99,0.00,29.6,28.6,00.0,38.8,31.3,20.5,0002.8,0032.48,0011.95,0009.64
2021-09-18 02:23:00,,0832.4,5.02,0.00,29.6,28.6,00.0,38.8,31.4,20.5,0002.6,0031.88,0011.94,0009.66
2021-09-18 02:24:00,,0832.3,4.99,0.00,29.6,28.7,00.0,38.8,31.4,20.5,0002.8,0031.87,0012.03,0009.70
2021-09-18 02:25:00,,0832.3,4.99,0.00,29.6,28.7,00.0,38.8,31.4,20.5,0002.6,0032.19,0012.06,0009.72
2021-09-18 02:26:00,,0832.3,5.01,0.00,29.6,28.7,00.0,38.8,31.4,20.4,0002.3,0032.82,0012.05,0009.72
2021-09-18 02:27:00,,0832.3,4.99,0.00,29.6,28.8,00.0,38.8,31.4,20.4,0002.2,0033.78,0012.08,0009.73
2021-09-18 02:28:00,,0832.3,5.01,0.00,29.7,28.8,00.0,38.8,31.4,20.3,0001.7,0034.38,0012.13,0009.75
2021-09-18 02:29:00,,0832.4,5.00,0.00,29.7,28.8,00.0,38.8,31.4,20.3,0001.6,0035.56,0012.16,0009.78
2021-09-18 02:30:00,,0832.3,4.99,0.00,29.7,28.8,00.0,38.8,31.4,20.3,0001.5,0036.12,0012.30,0009.83
2021-09-18 02:31:00,,0832.3,5.01,0.00,29.7,28.8,00.0,38.8,31.4,20.3,0001.6,0036.21,0012.44,0009.85
2021-09-18 02:32:00,,0832.4,4.99,0.00,29.7,28.9,00.0,38.8,31.4,20.3,0002.0,0035.85,0012.48,0009.85
2021-09-18 02:33:00,,0832.4,5.02,0.00,29.7,28.9,00.0,38.8,31.4,20.2,0002.1,0034.15,0012.55,0009.84
2021-09-18 02:34:00,,0832.4,4.98,0.00,29.7,28.9,00.0,38.8,31.4,20.2,0002.4,0034.55,0012.64,0009.83
2021-09-18 02:35:00,,0832.4,5.02,0.00,29.7,28.9,00.0,38.8,31.4,20.2,0002.0,0035.17,0012.61,0009.82
2021-09-18 02:36:00,,0832.4,5.00,0.00,29.7,28.9,00.0,38.8,31.5,20.2,0001.8,0035.41,0012.60,0009.82
2021-09-18 02:37:00,,0832.5,4.99,0.00,29.7,28.9,00.0,38.8,31.5,20.2,0002.0,0034.84,0012.56,0009.83
2021-09-18 02:38:00,,0832.4,5.01,0.00,29.7,28.9,00.0,38.9,31.5,20.2,0001.9,0033.98,0012.51,0009.82
2021-09-18 02:39:00,,0832.4,5.00,0.00,29.7,29.0,00.0,38.9,31.5,20.2,0002.0,0033.67,0012.49,0009.83
2021-09-18 02:40:00,,0832.4,5.01,0.00,29.7,29.0,00.0,38.9,31.5,20.2,0001.9,0032.10,0012.53,0009.85
2021-09-18 02:41:00,,0832.4,4.99,0.00,29.7,28.9,00.0,38.9,31.5,20.2,0001.7,0031.55,0012.47,0009.85
2021-09-18 02:42:00,,0832.5,4.99,0.00,29.7,29.0,00.0,38.9,31.5,20.2,0001.6,0032.67,0012.39,0009.86
2021-09-18 02:43:00,,0832.5,5.01,0.00,29.7,29.0,00.0,38.9,31.5,20.1,0001.2,0034.31,0012.33,0009.88
2021-09-18 02:44:00,,0832.5,4.99,0.00,29.7,29.0,00.0,38.9,31.5,20.1,0000.8,0035.93,0012.34,0009.91
2021-09-18 02:45:00,,0832.5,5.00,0.00,29.7,29.0,00.0,38.9,31.5,20.1,0000.9,0037.56,0012.34,0009.93
2021-09-18 02:46:00,,0832.5,5.02,0.00,29.7,29.0,00.0,38.9,31.5,20.2,0000.9,0037.27,0012.42,0009.94
2021-09-18 02:47:00,,0832.5,4.98,0.00,29.7,29.0,00.0,38.9,31.5,20.1,0001.3,0036.62,0012.43,0009.98
2021-09-18 02:48:00,,0832.5,5.01,0.00,29.8,29.0,00.0,38.9,31.5,20.1,0001.3,0035.55,0012.42,0009.99
2021-09-18 02:49:00,,0832.5,5.01,0.00,29.8,29.0,00.0,38.9,31.5,20.2,0001.3,0034.58,0012.44,0010.04
2021-09-18 02:50:00,,0832.5,4.99,0.00,29.8,29.0,00.0,38.9,31.5,20.1,0001.5,0034.53,0012.48,0010.05
2021-09-18 02:51:00,,0832.5,5.01,0.00,29.8,29.0,00.0,38.9,31.4,20.2,0001.6,0034.05,0012.50,0010.06
2021-09-18 02:52:00,,0832.5,4.99,0.00,29.8,29.0,00.0,38.9,31.5,20.2,0001.9,0033.88,0012.49,0010.05
2021-09-18 02:53:00,,0832.5,5.00,0.00,29.8,29.0,00.0,38.9,31.5,20.1,0002.1,0033.31,0012.52,0010.05
2021-09-18 02:54:00,,0832.5,5.01,0.00,29.8,29.0,00.0,38.9,31.5,20.1,0002.2,0031.88,0012.51,0010.04
2021-09-18 02:55:00,,0832.5,5.01,0.00,29.8,29.0,00.0,38.9,31.5,20.1,0002.3,0031.69,0012.51,0010.03
2021-09-18 02:56:00,,0832.5,4.99,0.00,29.8,29.1,00.0,38.9,31.5,20.1,0002.1,0029.97,0012.47,0010.01
2021-09-18 02:57:00,,0832.5,4.99,0.00,29.8,29.1,00.0,38.9,31.5,20.1,0001.9,0030.86,0012.39,0010.00
2021-09-18 02:58:00,,0832.5,5.00,0.00,29.8,29.1,00.0,38.9,31.5,20.1,0001.5,0030.80,0012.45,0010.00
2021-09-18 02:59:00,,0832.5,5.01,0.00,29.8,29.1,00.0,39.0,31.5,20.1,0001.4,0032.03,0012.59,0010.02
